Home   Weather   Glendale   Past weeks
Flag for USA

Past Weather in Glendale, Arizona, USA — Yesterday and Last 2 Weeks

Now
71 °F

Clear.


Feels Like: 75 °F
Forecast: 101 / 74 °F
Wind: 8 mph from East

Location: Phoenix-Deer Valley Municipal Airport

Current Time: Jun 20, 2019 at 5:07:36 am

Latest Report: Jun 20, 2019 at 3:53 am


Visibility: 10 mi

Pressure: 29.77 "Hg

Humidity: 22%

Dew Point: 30 °F

Location of GlendaleLocation

Past Weather in Glendale — Graph

°F

Glendale Temperature Yesterday

Maximum temperature yesterday: 99 °F (at 2:53 pm)
Minimum temperature yesterday: 73 °F (at 2:53 am)
Average temperature yesterday: 87 °F

High & Low Weather Summary for the Past Weeks

 TemperatureHumidityPressure
High103 °F (Jun 13, 3:53 pm)34% (Jun 5, 5:53 am)29.93 "Hg (Jun 5, 5:53 am)
Low68 °F (Jun 5, 3:53 am)7% (Jun 18, 3:53 pm)29.64 "Hg (Jun 16, 3:53 pm)
Average88 °F16%29.75 "Hg
* Reported Jun 5 3:53 am — Jun 20 3:53 am, Glendale. Weather by CustomWeather, © 2019

Note: Actual official high and low records may vary slightly from our data, if they occured in-between our weather recording intervals... More about our weather records

Advertising

Glendale Weather History for the Previous 24 Hours

Scroll right to see more
 ConditionsComfort  
Time TempWeatherWind HumidityBarometerVisibility
3:53 am
Thu, Jun 20
71 °FClear.8 mph22%29.77 "Hg10 mi
2:53 am72 °FClear.No wind20%29.77 "Hg10 mi
1:53 am74 °FClear.No wind19%29.76 "Hg10 mi
12:53 am78 °FClear.No wind18%29.77 "Hg10 mi
11:53 pm
Wed, Jun 19
84 °FClear.3 mph15%29.77 "Hg10 mi
10:53 pm83 °FClear.No wind12%29.76 "Hg10 mi
9:53 pm86 °FClear.No wind10%29.76 "Hg10 mi
8:53 pm90 °FClear.No wind9%29.74 "Hg10 mi
7:53 pm94 °FClear.7 mph8%29.73 "Hg10 mi
6:53 pm97 °FSunny.10 mph7%29.72 "Hg10 mi
5:53 pm97 °FSunny.7 mph8%29.72 "Hg10 mi
4:53 pm98 °FSunny.9 mph8%29.74 "Hg10 mi
3:53 pm99 °FSunny.10 mph8%29.76 "Hg10 mi
2:53 pm99 °FSunny.N/A8%29.78 "Hg10 mi
1:53 pm97 °FSunny.9 mph8%29.80 "Hg10 mi
12:53 pm95 °FSunny.N/A8%29.83 "Hg10 mi
11:53 am93 °FSunny.N/A9%29.85 "Hg10 mi
10:53 am90 °FSunny.7 mph11%29.86 "Hg10 mi
9:53 am88 °FSunny.7 mph11%29.87 "Hg10 mi
8:53 am85 °FSunny.3 mph13%29.87 "Hg10 mi
7:53 am83 °FSunny.6 mph13%29.87 "Hg10 mi
6:53 am78 °FSunny.No wind16%29.86 "Hg10 mi
5:53 am73 °FSunny.No wind19%29.84 "Hg10 mi
Weather by CustomWeather, © 2019

See weather overview